Aurora, NE

2:04 AM CDT on May 01, 2017 (GMT -0500)
Aurora Municipal

Weather History for KAUH - May, 2014

Change the Weather History Date:

Sunday, May 18, 2014

  Actual Average Record
Temperature  
Mean Temperature 58 °F -  
Max Temperature 74 °F 75 °F 95 °F (1967)
Min Temperature 41 °F 52 °F 35 °F (2002)
Degree Days  
Heating Degree Days 8    
Growing Degree Days 8 (Base 50)    
Moisture  
Dew Point 44 °F    
Average Humidity 56    
Maximum Humidity 87    
Minimum Humidity 37    
Precipitation  
Precipitation 0.00 in - - ()
Sea Level Pressure  
Sea Level Pressure 29.99 in    
Wind  
Wind Speed 12 mph (SSE)    
Max Wind Speed 28 mph    
Max Gust Speed 34 mph    
Visibility 10 miles    
Events      
Averages and records for this station are not official NWS values.
T = Trace of Precipitation, MM = Missing Value Source: NWS Daily Summary

Daily Weather History Graph

Daily Weather History Graph

Search for Another Location

Airport or City:

Trip Planner

Search our weather history database for the weather conditions in past years. The results will help you decide how hot, cold, wet, or windy it might be!

Date:

Astronomy

May. 18, 2014 Rise Set
Actual Time 6:11 AM CDT 8:45 PM CDT
Civil Twilight 5:40 AM CDT 9:17 PM CDT
Nautical Twilight 5:00 AM CDT 9:56 PM CDT
Astronomical Twilight 4:16 AM CDT 10:41 PM CDT
Moon No Moon Rise 10:02 AM CDT (5/18)
Length of Visible Light 15h 37m
Length of Day
14h 34m
Waning Gibbous, 81% of the Moon is Illuminated
May 18
Waning Gibbous
May 21
Last Quarter
May 28
New
Jun 5
First Quarter
Jun 12
Full

Hourly Weather History & Observations

Time (CDT) Temp. Windchill Dew Point Humidity Pressure Visibility Wind Dir Wind Speed Gust Speed Precip Events Conditions
12:15 AM 49.8 °F - 39.7 °F 68% 30.12 in 10.0 mi South 4.6 mph - N/A   Clear
12:35 AM 49.5 °F - 39.4 °F 68% 30.12 in 10.0 mi South 3.5 mph - N/A   Clear
12:55 AM 45.5 °F - 38.8 °F 78% 30.12 in 10.0 mi Calm Calm - N/A   Clear
1:15 AM 47.3 °F - 39.4 °F 74% 30.13 in 10.0 mi SSW 3.5 mph - N/A   Clear
1:35 AM 47.5 °F - 39.2 °F 73% 30.12 in 10.0 mi South 4.6 mph - N/A   Clear
1:55 AM 47.7 °F - 38.5 °F 70% 30.12 in 10.0 mi South 8.1 mph - N/A   Clear
2:15 AM 48.2 °F - 38.3 °F 69% 30.12 in 10.0 mi South 8.1 mph - N/A   Clear
2:35 AM 48.2 °F - 37.9 °F 68% 30.12 in 10.0 mi South 8.1 mph - N/A   Clear
2:55 AM 47.7 °F - 37.9 °F 69% 30.12 in 10.0 mi South 10.4 mph - N/A   Clear
3:15 AM 47.7 °F - 37.8 °F 69% 30.11 in 10.0 mi South 9.2 mph - N/A   Clear
3:35 AM 47.3 °F - 37.9 °F 70% 30.11 in 10.0 mi South 8.1 mph - N/A   Clear
3:55 AM 46.4 °F 42.4 °F 37.9 °F 72% 30.11 in 10.0 mi South 8.1 mph - N/A   Clear
4:15 AM 45.7 °F 42.0 °F 37.9 °F 74% 30.11 in 10.0 mi South 6.9 mph - N/A   Clear
4:35 AM 45.5 °F 41.3 °F 37.9 °F 75% 30.11 in 10.0 mi South 8.1 mph - N/A   Clear
4:55 AM 45.3 °F 41.1 °F 37.9 °F 75% 30.11 in 10.0 mi SSE 8.1 mph - N/A   Clear
5:15 AM 44.1 °F 40.8 °F 37.8 °F 78% 30.11 in 10.0 mi SSE 5.8 mph - N/A   Clear
5:35 AM 42.3 °F 38.6 °F 37.9 °F 85% 30.10 in 10.0 mi SSE 5.8 mph - N/A   Clear
5:55 AM 41.9 °F 37.5 °F 37.8 °F 85% 30.10 in 10.0 mi SSE 6.9 mph - N/A   Clear
6:15 AM 41.9 °F 37.5 °F 38.3 °F 87% 30.10 in 10.0 mi SSE 6.9 mph - N/A   Clear
6:35 AM 42.8 °F 38.6 °F 38.5 °F 85% 30.09 in 10.0 mi SSE 6.9 mph - N/A   Clear
6:55 AM 44.6 °F 40.7 °F 39.2 °F 81% 30.09 in 10.0 mi SSE 6.9 mph - N/A   Clear
7:15 AM 46.2 °F 41.7 °F 39.7 °F 78% 30.10 in 10.0 mi SSE 9.2 mph - N/A   Clear
7:35 AM 48.2 °F - 39.7 °F 73% 30.10 in 10.0 mi South 10.4 mph - N/A   Clear
7:55 AM 49.8 °F - 40.1 °F 69% 30.11 in 10.0 mi South 9.2 mph - N/A   Clear
8:15 AM 52.2 °F - 39.6 °F 62% 30.11 in 10.0 mi South 13.8 mph 19.6 mph N/A   Clear
8:35 AM 53.8 °F - 39.2 °F 58% 30.10 in 10.0 mi South 13.8 mph 21.9 mph N/A   Scattered Clouds
8:55 AM 54.5 °F - 39.6 °F 57% 30.10 in 10.0 mi South 13.8 mph - N/A   Mostly Cloudy
9:15 AM 55.2 °F - 39.9 °F 56% 30.10 in 10.0 mi South 12.7 mph - N/A   Overcast
9:35 AM 56.5 °F - 39.4 °F 53% 30.09 in 10.0 mi South 13.8 mph - N/A   Overcast
9:55 AM 58.3 °F - 39.4 °F 49% 30.09 in 10.0 mi SSE 17.3 mph - N/A   Mostly Cloudy
10:15 AM 60.1 °F - 38.7 °F 45% 30.08 in 10.0 mi South 19.6 mph 24.2 mph N/A   Scattered Clouds
10:35 AM 61.3 °F - 39.7 °F 45% 30.07 in 10.0 mi South 16.1 mph 23.0 mph N/A   Scattered Clouds
10:55 AM 62.2 °F - 40.8 °F 45% 30.06 in 10.0 mi South 17.3 mph 21.9 mph N/A   Mostly Cloudy
11:15 AM 63.1 °F - 41.0 °F 44% 30.06 in 10.0 mi South 19.6 mph 25.3 mph N/A   Scattered Clouds
11:35 AM 64.2 °F - 41.9 °F 44% 30.06 in 10.0 mi South 17.3 mph 23.0 mph N/A   Scattered Clouds
11:55 AM 64.6 °F - 42.4 °F 44% 30.05 in 10.0 mi South 18.4 mph 23.0 mph N/A   Scattered Clouds
12:15 PM 66.4 °F - 44.6 °F 45% 30.04 in 10.0 mi South 19.6 mph 24.2 mph N/A   Scattered Clouds
12:35 PM 66.4 °F - 46.0 °F 48% 30.03 in 10.0 mi South 17.3 mph 25.3 mph N/A   Mostly Cloudy
12:55 PM 67.5 °F - 45.7 °F 46% 30.01 in 10.0 mi SSE 20.7 mph 26.5 mph N/A   Scattered Clouds
1:15 PM 69.1 °F - 46.9 °F 45% 30.00 in 10.0 mi SSE 23.0 mph 26.5 mph N/A   Clear
1:35 PM 70.0 °F - 46.8 °F 43% 29.99 in 10.0 mi South 19.6 mph 27.6 mph N/A   Scattered Clouds
1:55 PM 70.9 °F - 45.9 °F 41% 29.98 in 10.0 mi SSE 19.6 mph 27.6 mph N/A   Clear
2:15 PM 71.1 °F - 45.1 °F 39% 29.97 in 10.0 mi SSE 26.5 mph 31.1 mph N/A   Clear
2:35 PM 71.4 °F - 45.0 °F 39% 29.95 in 10.0 mi SSE 27.6 mph 32.2 mph N/A   Clear
2:55 PM 72.1 °F - 46.0 °F 39% 29.95 in 10.0 mi SSE 20.7 mph 28.8 mph N/A   Clear
3:15 PM 72.3 °F - 46.6 °F 40% 29.93 in 10.0 mi SSE 19.6 mph 29.9 mph N/A   Clear
3:35 PM 72.5 °F - 46.6 °F 40% 29.92 in 10.0 mi SSE 24.2 mph 34.5 mph N/A   Clear
3:55 PM 72.9 °F - 46.6 °F 39% 29.91 in 10.0 mi SSE 21.9 mph 31.1 mph N/A   Clear
4:15 PM 74.3 °F - 46.8 °F 37% 29.89 in 10.0 mi SSE 27.6 mph 32.2 mph N/A   Clear
4:35 PM 74.1 °F - 46.2 °F 37% 29.88 in 10.0 mi SSE 23.0 mph 34.5 mph N/A   Clear
4:55 PM 74.3 °F - 46.6 °F 37% 29.87 in 10.0 mi South 21.9 mph 29.9 mph N/A   Clear
5:15 PM 74.3 °F - 46.9 °F 38% 29.86 in 10.0 mi SSE 21.9 mph 33.4 mph N/A   Clear
5:35 PM 73.9 °F - 47.5 °F 39% 29.86 in 10.0 mi SSE 21.9 mph 32.2 mph N/A   Clear
5:55 PM 74.1 °F - 47.7 °F 39% 29.85 in 10.0 mi SSE 25.3 mph 34.5 mph N/A   Clear
6:15 PM 73.8 °F - 47.5 °F 39% 29.85 in 10.0 mi SSE 26.5 mph 33.4 mph N/A   Clear
6:35 PM 73.4 °F - 47.8 °F 40% 29.85 in 10.0 mi SSE 23.0 mph 33.4 mph N/A   Clear
6:55 PM 72.9 °F - 48.2 °F 42% 29.84 in 10.0 mi South 21.9 mph 31.1 mph N/A   Clear
7:15 PM 72.3 °F - 48.7 °F 43% 29.84 in 10.0 mi SSE 21.9 mph 29.9 mph N/A   Scattered Clouds
7:35 PM 70.9 °F - 48.9 °F 46% 29.84 in 10.0 mi SSE 20.7 mph 27.6 mph N/A   Scattered Clouds
7:55 PM 70.7 °F - 49.3 °F 47% 29.84 in 10.0 mi SSE 18.4 mph 26.5 mph N/A   Overcast
8:15 PM 70.2 °F - 50.0 °F 49% 29.84 in 10.0 mi SSE 18.4 mph 24.2 mph N/A   Overcast
8:35 PM 69.6 °F - 50.2 °F 50% 29.84 in 10.0 mi SSE 17.3 mph - N/A   Overcast
8:55 PM 68.9 °F - 50.5 °F 52% 29.83 in 10.0 mi SSE 18.4 mph 23.0 mph N/A   Overcast
9:15 PM 68.4 °F - 50.9 °F 54% 29.83 in 10.0 mi SSE 17.3 mph 23.0 mph N/A   Overcast
9:35 PM 68.2 °F - 50.9 °F 54% 29.83 in 10.0 mi SSE 18.4 mph 25.3 mph N/A   Overcast
9:55 PM 68.2 °F - 50.9 °F 54% 29.84 in 10.0 mi SSE 19.6 mph - N/A   Overcast
10:15 PM 67.8 °F - 51.1 °F 55% 29.84 in 10.0 mi SSE 18.4 mph 25.3 mph N/A   Overcast
10:35 PM 66.7 °F - 51.1 °F 57% 29.84 in 10.0 mi SSE 18.4 mph 24.2 mph N/A   Scattered Clouds
10:55 PM 65.7 °F - 50.9 °F 59% 29.84 in 10.0 mi SE 16.1 mph - N/A   Clear
11:15 PM 64.8 °F - 50.9 °F 61% 29.83 in 10.0 mi SE 16.1 mph 23.0 mph N/A   Clear
11:35 PM 64.4 °F - 50.9 °F 62% 29.82 in 10.0 mi SE 18.4 mph 24.2 mph N/A   Clear
11:55 PM 63.9 °F - 51.3 °F 64% 29.82 in 10.0 mi SSE 18.4 mph 23.0 mph N/A   Clear